period_start,C,m1,H,J0,J1,J2,J3,J4,J5,JA,JB,JC,JD,JJ,JK,JN,#
2015-07-12 00:00:58,0.02,0.44,0.00,28.68,32.65,35.00,4.77,25.81,1008.99,2014.98,3240.26,3152.00,3413.06,350.54,339.02,24.84,0000 0000 0000 0000 000000
2015-07-12 00:05:59,0.02,0.44,0.00,28.69,32.63,34.99,4.67,25.71,1008.98,2014.99,3239.99,3151.83,3413.00,349.97,338.62,24.87,0000 0000 0000 0000 000000
2015-07-12 00:11:01,0.04,0.44,0.00,28.68,32.62,34.99,4.61,25.73,1009.01,2015.00,3239.60,3151.27,3412.97,350.40,339.00,24.90,0000 0000 0000 0000 000000
2015-07-12 00:16:02,0.04,0.45,0.00,28.68,32.62,34.98,4.62,25.70,1009.06,2015.00,3238.98,3151.01,3412.40,349.75,338.43,24.93,0000 0000 0000 0000 000000
2015-07-12 00:21:03,0.06,0.45,0.00,28.67,32.61,34.97,4.68,25.77,1009.13,2015.00,3238.11,3150.59,3411.97,350.23,338.86,24.96,0000 0000 0000 0000 000000
2015-07-12 00:26:04,0.06,0.45,0.00,28.67,32.60,34.95,4.61,25.72,1009.06,2015.01,3237.38,3150.03,3411.31,349.52,338.15,24.99,0000 0000 0000 0000 000000
2015-07-12 00:31:05,0.01,0.45,0.00,28.67,32.60,34.95,4.65,25.79,1009.14,2015.03,3236.89,3149.95,3411.01,350.00,338.66,25.02,0000 0000 0000 0000 000000
2015-07-12 00:36:07,0.06,0.45,0.00,28.66,32.60,34.95,4.66,25.70,1008.90,2015.03,3236.07,3149.33,3410.88,350.03,338.92,25.05,0000 0000 0000 0000 000000
2015-07-12 00:41:08,0.05,0.45,0.00,28.65,32.58,34.96,4.61,25.84,1008.83,2015.02,3235.48,3149.01,3410.12,349.91,338.28,25.07,0000 0000 0000 0000 000000
2015-07-12 00:46:09,0.03,0.45,0.00,28.65,32.57,34.95,4.63,25.76,1008.81,2015.07,3234.96,3148.80,3409.97,349.98,338.55,25.10,0000 0000 0000 0000 000000
2015-07-12 00:51:10,0.07,0.46,0.00,28.64,32.57,34.94,4.69,25.76,1008.82,2015.10,3234.12,3148.08,3409.27,350.26,338.92,25.13,0000 0000 0000 0000 000000
2015-07-12 00:56:12,0.02,0.46,0.00,28.63,32.57,34.94,4.67,25.77,1008.83,2015.18,3233.93,3148.00,3409.01,350.01,338.68,25.16,0000 0000 0000 0000 000000
2015-07-12 01:01:13,0.08,0.46,0.00,28.62,32.55,34.92,4.63,25.68,1008.82,2015.49,3233.35,3147.99,3409.00,350.13,338.63,25.19,0000 0000 0000 0000 000000
2015-07-12 01:06:14,0.02,0.46,0.00,28.62,32.55,34.93,4.60,25.68,1008.81,2015.54,3233.00,3147.78,3408.86,349.96,338.55,25.22,0000 0000 0000 0000 000000
2015-07-12 01:11:16,0.07,0.46,0.00,28.62,32.55,34.92,4.64,25.73,1008.80,2015.54,3232.47,3147.09,3408.19,349.47,338.03,25.25,0000 0000 0000 0000 000000
2015-07-12 01:16:17,0.06,0.46,0.00,28.62,32.54,34.89,4.63,25.76,1008.84,2015.82,3232.01,3147.00,3408.00,350.30,338.74,25.28,0000 0000 0000 0000 000000
2015-07-12 01:21:18,-0.00,0.46,0.00,28.62,32.53,34.88,4.71,25.77,1008.83,2015.83,3231.87,3146.98,3407.99,350.01,338.65,25.31,0000 0000 0000 0000 000000
2015-07-12 01:26:20,0.02,0.46,0.00,28.63,32.52,34.87,4.61,25.71,1008.80,2015.79,3231.12,3146.85,3407.88,350.32,338.89,25.34,0000 0000 0000 0000 000000
2015-07-12 01:31:21,0.03,0.47,0.00,28.64,32.52,34.84,4.66,25.68,1008.80,2015.95,3231.00,3146.74,3407.64,350.25,338.79,25.37,0000 0000 0000 0000 000000
2015-07-12 01:36:22,0.04,0.47,0.00,28.65,32.52,34.84,4.68,25.79,1008.80,2015.97,3230.91,3146.27,3407.20,350.51,338.90,25.40,0000 0000 0000 0000 000000
2015-07-12 01:41:23,0.03,0.47,0.00,28.65,32.52,34.83,4.64,25.80,1008.80,2015.95,3230.13,3146.01,3407.00,349.98,338.64,25.43,0000 0000 0000 0000 000000
2015-07-12 01:46:24,0.00,0.47,0.00,28.67,32.51,34.81,4.59,25.68,1008.80,2015.97,3230.00,3146.00,3407.00,350.01,338.54,25.46,0000 0000 0000 0000 000000
2015-07-12 01:51:26,0.00,0.47,0.00,28.67,32.50,34.80,4.77,25.75,1008.73,2015.97,3229.98,3145.99,3406.96,350.31,338.76,25.48,0000 0000 0000 0000 000000
2015-07-12 01:56:27,0.02,0.47,0.00,28.69,32.50,34.79,4.67,25.79,1008.45,2015.96,3229.69,3145.92,3406.64,350.07,338.42,25.51,0000 0000 0000 0000 000000
2015-07-12 02:01:29,0.05,0.47,0.00,28.70,32.50,34.78,4.60,25.70,1008.34,2015.98,3229.10,3145.50,3406.14,350.14,338.63,25.54,0000 0000 0000 0000 000000
2015-07-12 02:06:30,0.01,0.47,0.00,28.71,32.50,34.77,4.70,25.73,1008.35,2015.99,3229.01,3145.12,3406.02,350.21,338.62,25.57,0000 0000 0000 0000 000000
2015-07-12 02:11:31,0.00,0.47,0.00,28.73,32.50,34.78,4.56,25.73,1008.34,2015.99,3229.00,3145.04,3406.00,349.84,338.08,25.60,0000 0000 0000 0000 000000
2015-07-12 02:16:32,0.00,0.47,0.00,28.74,32.50,34.78,4.65,25.73,1008.33,2015.99,3228.91,3145.00,3406.00,350.27,338.16,25.63,0000 0000 0000 0000 000000
2015-07-12 02:21:33,0.02,0.47,0.00,28.75,32.50,34.76,4.65,25.76,1008.33,2015.99,3228.17,3144.99,3405.94,350.32,338.40,25.66,0000 0000 0000 0000 000000
2015-07-12 02:26:34,0.01,0.47,0.00,28.76,32.50,34.77,4.66,25.68,1008.32,2015.99,3228.00,3144.96,3405.63,349.76,338.10,25.69,0000 0000 0000 0000 000000
2015-07-12 02:31:35,0.02,0.47,0.00,28.79,32.52,34.76,4.64,25.68,1008.32,2015.99,3227.99,3144.82,3405.14,349.51,337.70,25.72,0000 0000 0000 0000 000000
2015-07-12 02:36:36,0.04,0.47,0.00,28.80,32.52,34.76,4.62,25.72,1008.31,2015.99,3227.59,3144.33,3405.01,349.80,338.08,25.75,0000 0000 0000 0000 000000
2015-07-12 02:41:38,0.01,0.48,0.00,28.82,32.52,34.75,4.53,25.77,1008.09,2015.99,3227.03,3144.04,3405.00,349.60,337.88,25.78,0000 0000 0000 0000 000000
2015-07-12 02:46:39,0.00,0.48,0.00,28.86,32.52,34.76,4.64,25.78,1007.90,2015.99,3227.00,3144.00,3404.96,349.64,337.68,25.81,0000 0000 0000 0000 000000
2015-07-12 02:51:40,0.01,0.48,0.00,28.88,32.53,34.75,4.65,25.77,1007.90,2015.99,3226.97,3144.00,3404.58,350.20,338.23,25.84,0000 0000 0000 0000 000000
2015-07-12 02:56:42,0.03,0.48,0.00,28.90,32.55,34.75,4.62,25.70,1007.91,2015.99,3226.51,3143.94,3404.14,350.00,337.81,25.87,0000 0000 0000 0000 000000
2015-07-12 03:01:43,0.04,0.48,0.00,28.93,32.55,34.76,4.56,25.75,1007.90,2015.99,3226.00,3143.29,3403.99,349.24,337.15,25.90,0000 0000 0000 0000 000000
2015-07-12 03:06:44,0.01,0.48,0.00,28.96,32.56,34.77,4.70,25.75,1007.92,2015.99,3225.81,3143.01,3403.92,350.34,338.15,25.92,0000 0000 0000 0000 000000
2015-07-12 03:11:46,0.04,0.48,0.00,28.98,32.57,34.78,4.59,25.71,1007.84,2015.97,3225.09,3142.99,3403.22,349.97,337.82,25.95,0000 0000 0000 0000 000000
2015-07-12 03:16:47,0.02,0.48,0.00,29.01,32.59,34.79,4.61,25.73,1007.84,2015.97,3224.96,3142.70,3403.00,350.11,338.08,25.98,0000 0000 0000 0000 000000
2015-07-12 03:21:48,0.03,0.48,0.00,29.03,32.60,34.80,4.68,25.68,1007.83,2015.95,3224.35,3142.14,3402.96,350.20,337.98,26.01,0000 0000 0000 0000 000000
2015-07-12 03:26:49,0.03,0.48,0.00,29.06,32.61,34.82,4.66,25.72,1007.83,2015.94,3223.95,3142.00,3402.27,349.94,337.77,26.04,0000 0000 0000 0000 000000
2015-07-12 03:31:51,0.03,0.48,0.00,29.09,32.62,34.83,4.60,25.68,1007.83,2015.97,3223.35,3141.89,3402.00,349.67,337.55,26.07,0000 0000 0000 0000 000000
2015-07-12 03:36:52,0.03,0.48,0.00,29.13,32.64,34.84,4.58,25.75,1007.83,2015.93,3223.01,3141.27,3401.92,349.89,337.48,26.10,0000 0000 0000 0000 000000
2015-07-12 03:41:54,0.01,0.48,0.00,29.16,32.66,34.86,4.63,25.77,1007.83,2015.71,3222.67,3141.01,3401.18,350.29,337.92,26.13,0000 0000 0000 0000 000000
2015-07-12 03:46:55,0.00,0.48,0.00,29.20,32.67,34.88,4.64,25.68,1007.83,2015.58,3222.11,3140.96,3401.00,349.75,337.39,26.16,0000 0000 0000 0000 000000
2015-07-12 03:51:56,-0.03,0.48,0.00,29.23,32.70,34.90,4.62,25.79,1007.83,2015.22,3221.97,3140.40,3400.81,349.82,337.41,26.19,0000 0000 0000 0000 000000
2015-07-12 03:56:57,0.03,0.48,0.00,29.27,32.71,34.91,4.60,25.77,1007.83,2015.07,3221.38,3140.00,3400.13,350.19,337.58,26.22,0000 0000 0000 0000 000000
2015-07-12 04:01:59,0.01,0.48,0.00,29.31,32.74,34.93,4.64,25.73,1007.82,2015.01,3220.95,3139.81,3399.96,349.93,337.48,26.25,0000 0000 0000 0000 000000
2015-07-12 04:07:00,0.05,0.49,0.00,29.34,32.76,34.96,4.64,25.75,1007.82,2015.00,3220.63,3139.12,3399.53,350.11,337.52,26.28,0000 0000 0000 0000 000000
2015-07-12 04:12:01,0.01,0.49,0.00,29.38,32.78,34.98,4.57,25.77,1007.82,2015.00,3220.04,3139.00,3399.03,349.92,337.33,26.30,0000 0000 0000 0000 000000
2015-07-12 04:17:02,0.00,0.49,0.00,29.42,32.80,35.00,4.63,25.81,1007.83,2014.97,3219.96,3138.80,3398.96,350.00,337.44,26.33,0000 0000 0000 0000 000000
2015-07-12 04:22:03,0.02,0.49,0.00,29.46,32.82,35.02,4.64,25.73,1007.83,2014.84,3219.74,3138.20,3398.59,350.36,337.69,26.36,0000 0000 0000 0000 000000
2015-07-12 04:27:05,-0.05,0.49,0.00,29.50,32.85,35.04,4.58,25.82,1007.83,2014.38,3219.12,3138.00,3398.04,349.63,336.90,26.39,0000 0000 0000 0000 000000
2015-07-12 04:32:06,-0.02,0.49,0.00,29.53,32.87,35.06,4.63,25.73,1007.83,2014.07,3219.00,3137.92,3397.98,350.06,337.11,26.42,0000 0000 0000 0000 000000
2015-07-12 04:37:07,0.05,0.49,0.00,29.57,32.89,35.10,4.55,25.86,1007.83,2014.01,3218.72,3137.30,3397.66,349.81,337.06,26.45,0000 0000 0000 0000 000000
2015-07-12 04:42:08,0.03,0.49,0.00,29.61,32.91,35.12,4.61,25.88,1007.83,2014.00,3218.04,3137.01,3397.04,349.74,336.75,26.48,0000 0000 0000 0000 000000
2015-07-12 04:47:10,0.00,0.49,0.00,29.64,32.94,35.15,4.60,25.79,1007.82,2014.00,3217.94,3136.98,3396.99,349.64,336.76,26.51,0000 0000 0000 0000 000000
2015-07-12 04:52:11,0.07,0.49,0.00,29.67,32.96,35.17,4.60,25.79,1007.82,2014.00,3217.24,3136.53,3396.49,349.77,337.05,26.54,0000 0000 0000 0000 000000
2015-07-12 04:57:12,0.02,0.49,0.00,29.70,32.99,35.19,4.62,25.77,1007.79,2013.98,3216.84,3136.02,3396.01,349.90,337.14,26.57,0000 0000 0000 0000 000000
2015-07-12 05:02:14,0.04,0.49,0.00,29.74,33.01,35.22,4.62,25.68,1007.81,2013.96,3216.09,3135.92,3395.66,350.77,337.56,26.60,0000 0000 0000 0000 000000
2015-07-12 05:07:15,0.06,0.49,0.00,29.77,33.04,35.25,4.60,25.73,1007.73,2013.93,3215.47,3135.29,3395.06,349.82,336.69,26.63,0000 0000 0000 0000 000000
2015-07-12 05:12:16,-0.01,0.50,0.00,29.81,33.06,35.28,4.60,25.73,1007.59,2013.85,3214.97,3135.00,3394.87,350.24,337.09,26.66,0000 0000 0000 0000 000000
2015-07-12 05:17:17,0.02,0.50,0.00,29.85,33.10,35.31,4.61,25.73,1007.73,2013.68,3214.22,3134.94,3394.13,349.98,336.84,26.69,0000 0000 0000 0000 000000
2015-07-12 05:22:18,0.06,0.50,0.00,29.89,33.12,35.33,4.65,25.76,1007.80,2013.64,3213.40,3134.31,3393.81,350.36,337.10,26.71,0000 0000 0000 0000 000000
2015-07-12 05:27:19,-0.04,0.50,0.00,29.92,33.15,35.36,4.59,25.71,1007.81,2013.21,3212.82,3133.99,3393.05,349.90,336.71,26.74,0000 0000 0000 0000 000000
2015-07-12 05:32:21,0.06,0.50,0.00,29.96,33.18,35.39,4.59,25.75,1007.77,2013.07,3212.06,3133.34,3392.58,349.70,336.57,26.77,0000 0000 0000 0000 000000
2015-07-12 05:37:22,0.03,0.50,0.00,29.99,33.21,35.42,4.62,25.68,1007.73,2013.02,3211.51,3133.00,3392.01,350.37,336.80,26.80,0000 0000 0000 0000 000000
2015-07-12 05:42:23,0.07,0.50,0.00,30.03,33.24,35.45,4.71,25.76,1007.63,2013.00,3210.79,3132.38,3391.26,350.61,337.24,26.83,0000 0000 0000 0000 000000
2015-07-12 05:47:24,0.02,0.50,0.00,30.07,33.27,35.47,4.58,25.63,1007.55,2013.00,3210.08,3132.01,3391.00,350.08,336.63,26.86,0000 0000 0000 0000 000000
2015-07-12 05:52:25,0.08,0.50,0.00,30.11,33.30,35.50,4.61,25.71,1007.45,2013.00,3209.33,3131.49,3390.49,350.25,336.73,26.89,0000 0000 0000 0000 000000
2015-07-12 05:57:26,0.02,0.51,0.00,30.14,33.33,35.54,4.65,25.71,1007.47,2012.99,3208.86,3131.01,3390.00,350.09,336.51,26.92,0000 0000 0000 0000 000000
2015-07-12 06:02:28,0.06,0.51,0.00,30.18,33.37,35.58,4.60,25.71,1007.49,2012.93,3208.14,3130.63,3389.47,350.50,336.85,26.95,0000 0000 0000 0000 000000
2015-07-12 06:07:29,-0.05,0.51,0.00,30.22,33.40,35.62,4.58,25.63,1007.51,2012.47,3207.42,3130.00,3388.90,350.18,336.55,26.98,0000 0000 0000 0000 000000
2015-07-12 06:12:30,0.04,0.51,0.00,30.25,33.43,35.65,4.61,25.57,1007.43,2012.11,3206.83,3129.47,3388.10,350.52,336.91,27.01,0000 0000 0000 0000 000000
2015-07-12 06:17:31,0.02,0.51,0.00,30.28,33.46,35.69,4.57,25.72,1007.39,2012.03,3206.03,3129.01,3387.77,350.14,336.36,27.04,0000 0000 0000 0000 000000
2015-07-12 06:22:33,0.08,0.51,0.00,30.33,33.50,35.72,4.57,25.65,1007.44,2012.00,3205.35,3128.45,3387.05,349.95,336.27,27.07,0000 0000 0000 0000 000000
2015-07-12 06:27:34,0.02,0.51,0.00,30.38,33.53,35.75,4.57,25.55,1007.36,2011.99,3204.94,3127.98,3386.56,349.78,335.98,27.10,0000 0000 0000 0000 000000
2015-07-12 06:32:35,0.07,0.51,0.00,30.42,33.57,35.79,4.65,25.53,1007.37,2011.98,3204.13,3127.30,3386.01,350.72,336.68,27.13,0000 0000 0000 0000 000000
2015-07-12 06:37:36,-0.03,0.51,0.00,30.47,33.61,35.82,4.61,25.73,1007.37,2011.67,3203.57,3126.93,3385.37,350.13,336.04,27.15,0000 0000 0000 0000 000000
2015-07-12 06:42:37,0.00,0.51,0.00,30.51,33.64,35.87,4.59,25.62,1007.36,2011.15,3202.95,3126.14,3384.95,349.82,335.91,27.18,0000 0000 0000 0000 000000
2015-07-12 06:47:39,0.03,0.51,0.00,30.56,33.68,35.92,4.60,25.63,1007.36,2011.06,3202.16,3125.93,3384.22,350.21,336.09,27.21,0000 0000 0000 0000 000000
2015-07-12 06:52:40,0.07,0.51,0.00,30.61,33.71,35.96,4.59,25.67,1007.36,2011.00,3201.44,3125.16,3383.72,350.31,336.19,27.24,0000 0000 0000 0000 000000
2015-07-12 06:57:41,0.02,0.52,0.00,30.66,33.75,36.00,4.67,25.66,1007.35,2011.00,3201.00,3124.95,3383.12,350.40,336.09,27.27,0000 0000 0000 0000 000000
2015-07-12 07:02:42,0.07,0.52,0.00,30.71,33.79,36.05,4.62,25.61,1007.36,2010.96,3200.19,3124.16,3382.65,350.47,336.47,27.30,0000 0000 0000 0000 000000
2015-07-12 07:07:44,-0.01,0.52,0.00,30.76,33.83,36.10,4.58,25.66,1007.35,2010.71,3199.77,3123.93,3382.04,349.49,335.12,27.33,0000 0000 0000 0000 000000
2015-07-12 07:12:46,-0.02,0.52,0.00,30.81,33.86,36.14,4.58,25.69,1007.35,2010.19,3199.04,3123.15,3381.38,350.04,335.80,27.36,0000 0000 0000 0000 000000
2015-07-12 07:17:47,0.02,0.52,0.00,30.87,33.90,36.20,4.68,25.63,1007.35,2010.02,3198.34,3122.90,3380.95,350.46,336.05,27.39,0000 0000 0000 0000 000000
2015-07-12 07:22:48,0.06,0.52,0.00,30.91,33.94,36.26,4.57,25.62,1007.35,2010.00,3197.94,3122.16,3380.24,350.16,335.90,27.42,0000 0000 0000 0000 000000
2015-07-12 07:27:49,0.03,0.52,0.00,30.95,33.98,36.30,4.59,25.69,1007.35,2009.99,3197.12,3121.90,3379.89,349.74,335.26,27.45,0000 0000 0000 0000 000000
2015-07-12 07:32:50,0.07,0.52,0.00,31.00,34.02,36.34,4.56,25.57,1007.35,2009.95,3196.52,3121.14,3379.09,349.86,335.35,27.48,0000 0000 0000 0000 000000
2015-07-12 07:37:51,-0.03,0.52,0.00,31.05,34.06,36.38,4.61,25.58,1007.35,2009.47,3195.65,3120.58,3378.42,350.01,335.47,27.51,0000 0000 0000 0000 000000
2015-07-12 07:42:53,-0.00,0.52,0.00,31.10,34.10,36.42,4.59,25.52,1007.36,2009.04,3194.97,3120.01,3377.91,350.08,335.72,27.54,0000 0000 0000 0000 000000
2015-07-12 07:47:54,0.08,0.52,0.00,31.15,34.14,36.46,4.56,25.53,1007.37,2009.00,3194.14,3119.46,3377.03,350.15,335.44,27.56,0000 0000 0000 0000 000000
2015-07-12 07:52:55,0.23,0.53,0.00,31.20,34.18,36.50,4.54,25.49,1007.36,2009.00,3192.07,3117.22,3374.72,350.34,335.36,27.59,0000 0000 0000 0000 000000
2015-07-12 07:57:57,0.07,0.53,0.00,31.24,34.22,36.54,4.55,25.51,1007.39,2008.97,3191.07,3116.53,3373.88,349.64,334.79,27.62,0000 0000 0000 0000 000000
2015-07-12 08:02:58,0.09,0.53,0.00,31.28,34.26,36.59,4.58,25.58,1007.37,2008.82,3189.78,3115.61,3372.80,350.16,335.30,27.65,0000 0000 0000 0000 000000
2015-07-12 08:07:59,0.06,0.54,0.00,31.33,34.31,36.62,4.61,25.62,1007.38,2008.27,3187.95,3114.24,3371.42,350.42,335.48,27.68,0000 0000 0000 0000 000000
2015-07-12 08:13:01,0.14,0.54,0.00,31.40,34.35,36.66,4.58,25.53,1007.40,2008.03,3185.92,3112.69,3369.78,350.39,335.30,27.71,0000 0000 0000 0000 000000
2015-07-12 08:18:02,0.10,0.54,0.00,31.47,34.39,36.70,4.64,25.57,1007.42,2008.00,3184.47,3111.67,3368.67,350.23,335.14,27.74,0000 0000 0000 0000 000000
2015-07-12 08:23:03,0.09,0.55,0.00,31.53,34.44,36.73,4.57,25.48,1007.49,2007.98,3183.34,3110.74,3367.65,350.20,335.27,27.77,0000 0000 0000 0000 000000
2015-07-12 08:28:04,0.04,0.55,0.00,31.60,34.48,36.77,4.56,25.46,1007.38,2007.85,3182.37,3109.95,3366.87,349.71,334.53,27.80,0000 0000 0000 0000 000000
2015-07-12 08:33:06,-0.02,0.55,0.00,31.65,34.52,36.82,4.55,25.54,1007.53,2007.24,3181.46,3109.09,3365.98,350.23,334.99,27.83,0000 0000 0000 0000 000000
2015-07-12 08:38:07,0.10,0.55,0.00,31.69,34.57,36.88,4.56,25.57,1007.63,2007.02,3180.22,3108.12,3364.74,349.89,334.57,27.86,0000 0000 0000 0000 000000
2015-07-12 08:43:08,0.08,0.55,0.00,31.73,34.61,36.93,4.65,25.52,1007.57,2007.00,3179.11,3107.15,3363.86,350.06,334.71,27.89,0000 0000 0000 0000 000000
2015-07-12 08:48:09,0.11,0.56,0.00,31.77,34.66,36.98,4.57,25.52,1007.49,2006.97,3178.02,3106.40,3362.61,350.06,334.77,27.92,0000 0000 0000 0000 000000
2015-07-12 08:53:11,0.03,0.56,0.00,31.82,34.70,37.02,4.60,25.50,1007.66,2006.70,3176.97,3105.17,3361.67,350.57,335.22,27.95,0000 0000 0000 0000 000000
2015-07-12 08:58:12,-0.02,0.56,0.00,31.87,34.75,37.06,4.52,25.51,1007.59,2006.18,3176.11,3104.62,3360.96,350.12,334.81,27.97,0000 0000 0000 0000 000000
2015-07-12 09:03:13,0.05,0.56,0.00,31.92,34.80,37.09,4.59,25.48,1007.46,2006.01,3175.36,3103.99,3360.12,350.11,334.61,28.00,0000 0000 0000 0000 000000
2015-07-12 09:08:14,0.08,0.56,0.00,31.98,34.85,37.15,4.62,25.48,1007.45,2006.00,3174.70,3103.23,3359.51,350.56,334.86,28.03,0000 0000 0000 0000 000000
2015-07-12 09:13:16,0.03,0.56,0.00,32.03,34.89,37.20,4.59,25.40,1007.49,2005.94,3173.93,3102.74,3358.88,350.05,334.44,28.06,0000 0000 0000 0000 000000
2015-07-12 09:18:17,-0.02,0.56,0.00,32.08,34.94,37.25,4.58,25.41,1007.45,2005.50,3173.09,3102.02,3358.07,350.44,334.76,28.09,0000 0000 0000 0000 000000
2015-07-12 09:23:18,0.04,0.56,0.00,32.13,34.99,37.30,4.59,25.40,1007.52,2005.07,3172.31,3101.35,3357.42,349.93,334.51,28.12,0000 0000 0000 0000 000000
2015-07-12 09:28:20,0.06,0.56,0.00,32.19,35.04,37.34,4.62,25.32,1007.70,2005.00,3171.53,3100.80,3356.75,350.83,335.06,28.15,0000 0000 0000 0000 000000
2015-07-12 09:33:21,0.05,0.57,0.00,32.24,35.09,37.39,4.52,25.41,1007.69,2004.94,3170.68,3100.00,3355.89,349.82,334.11,28.18,0000 0000 0000 0000 000000
2015-07-12 09:38:22,-0.02,0.57,0.00,32.30,35.14,37.43,4.58,25.48,1007.76,2004.42,3169.84,3099.20,3355.07,349.79,333.85,28.21,0000 0000 0000 0000 000000
2015-07-12 09:43:23,0.01,0.57,0.00,32.36,35.19,37.49,4.56,25.34,1007.79,2004.02,3169.05,3098.87,3354.40,350.14,334.10,28.24,0000 0000 0000 0000 000000
2015-07-12 09:48:25,0.05,0.57,0.00,32.42,35.24,37.53,4.63,25.45,1007.77,2004.00,3168.63,3098.16,3354.00,350.36,334.37,28.27,0000 0000 0000 0000 000000
2015-07-12 09:53:26,0.08,0.57,0.00,32.47,35.28,37.59,4.52,25.50,1007.80,2003.99,3167.77,3097.61,3353.30,349.99,333.98,28.30,0000 0000 0000 0000 000000
2015-07-12 09:58:28,0.04,0.57,0.00,32.51,35.34,37.64,4.58,25.52,1007.81,2003.78,3166.71,3096.78,3352.40,350.01,334.08,28.33,0000 0000 0000 0000 000000
2015-07-12 10:03:29,0.02,0.57,0.00,32.55,35.39,37.70,4.57,25.46,1007.83,2003.18,3165.45,3095.85,3351.28,349.47,333.40,28.36,0000 0000 0000 0000 000000
2015-07-12 10:08:30,0.08,0.57,0.00,32.61,35.44,37.75,4.60,25.43,1007.83,2003.01,3164.14,3094.92,3350.31,350.24,334.05,28.38,0000 0000 0000 0000 000000
2015-07-12 10:13:32,0.11,0.58,0.00,32.66,35.49,37.79,4.56,25.37,1007.83,2003.00,3162.76,3093.90,3349.24,350.37,334.07,28.41,0000 0000 0000 0000 000000
2015-07-12 10:18:33,0.07,0.58,0.00,32.69,35.54,37.84,4.62,25.50,1007.83,2002.76,3161.38,3092.74,3348.02,350.60,334.18,28.44,0000 0000 0000 0000 000000
2015-07-12 10:23:35,0.06,0.58,0.00,32.74,35.60,37.87,4.59,25.47,1007.83,2002.23,3159.73,3091.58,3346.72,350.25,333.95,28.47,0000 0000 0000 0000 000000
2015-07-12 10:28:36,0.10,0.58,0.00,32.77,35.64,37.92,4.58,25.37,1007.83,2002.01,3158.15,3090.41,3345.51,350.25,333.76,28.50,0000 0000 0000 0000 000000
2015-07-12 10:33:37,0.14,0.59,0.00,32.81,35.70,37.95,4.52,25.31,1007.83,2001.97,3156.33,3089.04,3344.03,350.09,333.76,28.53,0000 0000 0000 0000 000000
2015-07-12 10:38:39,0.16,0.59,0.00,32.85,35.75,37.99,4.55,25.46,1007.83,2001.62,3153.62,3087.07,3341.91,349.63,333.36,28.56,0000 0000 0000 0000 000000
2015-07-12 10:43:40,0.27,0.60,0.00,32.88,35.80,38.07,4.52,25.45,1007.83,2001.05,3149.76,3084.35,3339.13,349.85,333.41,28.59,0000 0000 0000 0000 000000
2015-07-12 10:48:41,0.38,0.61,0.00,32.91,35.85,38.11,4.55,25.36,1007.83,2001.00,3145.06,3081.12,3335.73,349.63,333.25,28.62,0000 0000 0000 0000 000000
2015-07-12 10:53:42,0.36,0.62,0.00,32.94,35.90,38.16,4.54,25.41,1007.83,2000.85,3139.98,3077.75,3332.09,349.95,333.41,28.65,0000 0000 0000 0000 000000
2015-07-12 10:58:44,0.35,0.63,0.00,32.98,35.94,38.19,4.58,25.28,1007.83,2000.27,3134.86,3074.03,3328.19,350.00,333.42,28.68,0000 0000 0000 0000 000000
2015-07-12 11:03:45,0.72,0.65,0.00,33.01,35.99,38.24,4.53,25.28,1007.84,2000.01,3126.99,3067.97,3321.89,349.90,333.32,28.71,0000 0000 0000 0000 000000
2015-07-12 11:08:47,1.00,0.67,0.00,33.05,36.04,38.28,4.52,25.41,1007.84,1999.99,3116.93,3059.89,3313.46,349.17,332.55,28.74,0000 0000 0000 0000 000000
2015-07-12 11:13:48,1.77,0.72,0.00,33.08,36.08,38.34,4.56,25.32,1007.84,1999.70,3098.76,3044.47,3297.49,349.60,333.02,28.77,0000 0000 0000 0000 000000
2015-07-12 11:18:49,0.94,0.76,0.00,33.11,36.13,38.39,4.54,25.35,1007.83,1999.18,3085.59,3033.71,3286.40,349.62,333.03,28.79,0000 0000 0000 0000 000000
2015-07-12 11:23:50,0.46,0.77,0.00,33.12,36.17,38.42,4.57,25.27,1007.84,1999.03,3078.99,3028.58,3281.02,350.24,333.56,28.82,0000 0000 0000 0000 000000
2015-07-12 11:28:52,0.37,0.79,0.50,33.15,36.21,38.47,4.55,25.34,1007.84,1999.00,3074.45,3025.13,3277.32,349.80,333.20,28.85,0000 0000 0000 0000 000000
2015-07-12 11:33:53,0.27,0.80,1.00,33.16,36.25,38.52,4.57,25.27,1007.84,1998.96,3071.08,3022.41,3274.52,350.00,333.32,28.88,0000 0000 0000 0000 000000
2015-07-12 11:38:54,0.17,0.80,1.00,33.18,36.29,38.56,4.58,25.48,1007.84,1998.78,3068.44,3020.43,3272.38,349.82,333.10,28.91,0000 0000 0000 0000 000000
2015-07-12 11:43:56,0.11,0.80,1.00,33.21,36.33,38.59,4.60,25.29,1007.85,1998.28,3066.42,3018.76,3270.66,350.60,333.78,28.94,0000 0000 0000 0000 000000
2015-07-12 11:48:57,0.14,0.81,1.00,33.23,36.37,38.64,4.52,25.30,1007.84,1998.04,3064.32,3017.14,3268.86,350.43,333.42,28.97,0000 0000 0000 0000 000000
2015-07-12 11:53:58,0.17,0.81,1.00,33.26,36.41,38.68,4.50,25.22,1007.85,1998.00,3062.41,3015.71,3267.38,349.30,332.59,29.00,0000 0000 0000 0000 000000
2015-07-12 11:59:00,0.20,0.82,0.47,33.30,36.44,38.70,4.50,25.24,1007.85,1997.99,3060.24,3013.92,3265.53,349.77,332.86,29.03,0000 0000 0000 0000 000000
2015-07-12 12:04:01,0.26,0.83,0.00,33.34,36.48,38.75,4.53,25.27,1007.84,1997.70,3057.02,3011.25,3262.85,349.66,332.65,29.06,0000 0000 0000 0000 000000
2015-07-12 12:09:02,0.25,0.83,0.00,33.36,36.52,38.78,4.59,25.33,1007.84,1997.14,3053.40,3008.36,3259.88,350.21,333.12,29.09,0000 0000 0000 0000 000000
2015-07-12 12:14:04,0.29,0.84,0.00,33.38,36.55,38.81,4.58,25.27,1007.84,1997.02,3049.82,3005.69,3256.95,350.39,333.39,29.12,0000 0000 0000 0000 000000
2015-07-12 12:19:05,0.26,0.85,0.00,33.40,36.59,38.84,4.55,25.24,1007.84,1997.00,3046.76,3003.43,3254.49,350.14,333.07,29.15,0000 0000 0000 0000 000000
2015-07-12 12:24:07,0.24,0.86,0.00,33.41,36.62,38.88,4.52,25.22,1007.85,1996.99,3043.94,3001.18,3252.14,349.70,332.66,29.18,0000 0000 0000 0000 000000
2015-07-12 12:29:08,0.18,0.87,0.00,33.42,36.66,38.91,4.50,25.24,1007.85,1996.93,3041.62,2999.47,3250.25,349.83,332.89,29.20,0000 0000 0000 0000 000000
2015-07-12 12:34:10,0.15,0.87,0.00,33.45,36.69,38.94,4.54,25.29,1007.85,1996.70,3039.38,2997.71,3248.45,349.81,332.77,29.23,0000 0000 0000 0000 000000
2015-07-12 12:39:11,0.10,0.87,0.00,33.46,36.72,38.97,4.60,25.39,1007.85,1996.12,3037.09,2996.11,3246.64,350.31,333.24,29.26,0000 0000 0000 0000 000000
2015-07-12 12:44:12,0.13,0.88,0.00,33.50,36.75,39.00,4.55,25.24,1007.86,1996.03,3035.49,2994.76,3245.31,349.87,332.74,29.29,0000 0000 0000 0000 000000
2015-07-12 12:49:13,0.14,0.88,0.00,33.53,36.78,39.03,4.50,25.31,1007.85,1996.00,3033.79,2993.57,3243.94,350.12,333.04,29.32,0000 0000 0000 0000 000000
2015-07-12 12:54:14,0.13,0.89,0.00,33.55,36.81,39.06,4.52,25.23,1007.84,1996.00,3032.29,2992.38,3242.70,350.17,333.00,29.35,0000 0000 0000 0000 000000
2015-07-12 12:59:16,0.37,0.89,0.00,33.55,36.84,39.08,4.54,25.23,1007.84,1995.95,3029.89,2989.91,3240.03,349.82,332.73,29.38,0000 0000 0000 0000 000000